This is the latest recevied weather packets stored in our database for station/object KE8AFF-13. If no packets are shown the sender has not sent any weather packets the latest 10 day(s).
| Time | Temp. | Humidity | Pressure | Rain* | Wind** | Luminosity | Snow |
|---|---|---|---|---|---|---|---|
| 1777733729 | 5° C | 86% | 1019 hPa | 0 mm | - | 150 W/m² | - |
| 1777733426 | 5° C | 86% | 1019.1 hPa | 0 mm | - | 125 W/m² | - |
| 1777733122 | 4.44° C | 85% | 1018.8 hPa | 0 mm | - | 78 W/m² | - |
| 1777732814 | 4.44° C | 84% | 1018.8 hPa | 0 mm | - | 52 W/m² | - |
| 1777732510 | 4.44° C | 83% | 1018.9 hPa | 0 mm | - | 46 W/m² | - |
| 1777732209 | 5° C | 83% | 1018.9 hPa | 0 mm | - | 47 W/m² | - |
| 1777731905 | 5° C | 83% | 1018.9 hPa | 0 mm | - | 64 W/m² | - |
| 1777731602 | 5° C | 83% | 1018.8 hPa | 0 mm | - | 164 W/m² | - |
| 1777731300 | 5° C | 82% | 1018.9 hPa | 0 mm | - | 329 W/m² | - |
| 1777730997 | 5.56° C | 82% | 1019.1 hPa | 0 mm | - | 835 W/m² | - |
| 1777730695 | 5.56° C | 84% | 1018.8 hPa | 0 mm | - | 439 W/m² | - |
| 1777730391 | 4.44° C | 86% | 1019 hPa | 0 mm | - | 691 W/m² | - |
| 1777730087 | 3.89° C | 87% | 1018.9 hPa | 0 mm | - | 254 W/m² | - |
| 1777729784 | 3.89° C | 88% | 1019 hPa | 0 mm | - | 431 W/m² | - |
| 1777729481 | 3.89° C | 88% | 1018.8 hPa | 0 mm | - | 171 W/m² | - |
| 1777729177 | 3.89° C | 89% | 1018.9 hPa | 0 mm | - | 235 W/m² | - |
| 1777728874 | 3.89° C | 89% | 1019 hPa | 0 mm | - | 213 W/m² | - |
| 1777728571 | 3.89° C | 88% | 1019.1 hPa | 0 mm | - | 153 W/m² | - |
| 1777728268 | 3.89° C | 89% | 1018.7 hPa | 0 mm | - | 520 W/m² | - |
| 1777727965 | 3.33° C | 89% | 1018.4 hPa | 0 mm | - | 196 W/m² | - |
| 1777727662 | 3.33° C | 88% | 1018.6 hPa | 0 mm | - | 384 W/m² | - |
| 1777727359 | 3.33° C | 88% | 1018.5 hPa | 0 mm | - | 340 W/m² | - |
| 1777727056 | 3.33° C | 89% | 1018.7 hPa | 0 mm | - | 317 W/m² | - |
| 1777726754 | 2.78° C | 89% | 1018.7 hPa | 0 mm | - | 328 W/m² | - |
| 1777726451 | 2.78° C | 89% | 1018.6 hPa | 0 mm | - | 336 W/m² | - |
* Rain latest hour (hover to see other rain measurements)
** Current wind speed in m/s (hover to see current wind gust speed)